Flag for Germany Weather past 2 weeks in Cuxhaven, Lower Saxony, Germany

Now
66 °F

Partly sunny.


Feels Like: 66 °F
Forecast: 56 / 64 °F
Wind: 15 mph from Southwest

Location: Nordholz

Current Time: Aug 30, 2014 at 2:44:18 PM

Latest Report: Aug 30, 2014 at 1:20 PM


Visibility: N/A

Pressure: 29.92 "Hg

Humidity: 78%

Dew point: 59 °F

Location of CuxhavenLocation

Historic Weather in Cuxhaven — Graph

°F

Cuxhaven temperature yesterday

Maximum temperature yesterday: 68 °F (at 1:20 PM)
Minimum temperature yesterday: 57 °F (at 10:20 PM)
Average temperature yesterday: 64 °F

Past Weeks' High & Low Weather Summary

 TemperatureHumidityPressure
High73 °F (Aug 28, 3:20 PM)100% (Aug 16, 7:20 AM)30.04 "Hg (Aug 16, 7:20 AM)
Low45 °F (Aug 26, 2:20 AM)43% (Aug 27, 1:20 PM)29.45 "Hg (Aug 18, 8:20 AM)
Average57 °F81%29.85 "Hg
* Reported Aug 15 1:20 PM — Aug 30 1:20 PM, Cuxhaven, Weather by CustomWeather, © 2014

Note: Actual official high and low records may vary slightly from our data, if they occured in-between our weather recording intervals... More about our weather records

Advertising

Cuxhaven weather history for previous 24 hours

 ConditionsComfort  
Time TempWeatherWind HumidityBarometerVisibility
1:20 PM
Aug 30
66 °FPartly sunny.15 mph78%29.92 "HgN/A
12:20 PM63 °FPartly sunny.12 mph88%29.92 "HgN/A
11:20 AM61 °FPartly sunny.10 mph94%29.92 "HgN/A
10:46 AM59 °FPartly sunny.12 mph100%29.89 "Hg6 mi
10:20 AM59 °FDrizzle. Fog.13 mph94%29.92 "Hg2 mi
10:02 AM61 °FDrizzle. Fog.12 mph88%29.92 "Hg2 mi
9:47 AM61 °FPartly sunny.13 mph83%29.89 "HgN/A
9:20 AM61 °FBroken clouds.13 mph83%29.92 "HgN/A
8:20 AM59 °FPartly sunny.13 mph88%29.89 "HgN/A
7:20 AM59 °FPassing clouds.9 mph88%29.89 "HgN/A
6:20 AM59 °FPassing clouds.9 mph88%29.89 "HgN/A
5:20 AM59 °FPassing clouds.9 mph88%29.92 "HgN/A
4:20 AM59 °FPassing clouds.8 mph88%29.92 "HgN/A
3:20 AM59 °FPassing clouds.8 mph88%29.92 "HgN/A
2:20 AM57 °FPartly cloudy.7 mph88%29.95 "HgN/A
1:20 AM59 °FPassing clouds.8 mph88%29.95 "HgN/A
12:20 AM57 °FPartly cloudy.7 mph94%29.95 "HgN/A
11:20 PM
Aug 29
57 °FPassing clouds.6 mph94%29.95 "HgN/A
10:20 PM57 °FPassing clouds.5 mph100%29.95 "HgN/A
8:20 PM61 °FPartly sunny.2 mph88%29.95 "HgN/A
7:20 PM64 °FBroken clouds.6 mph83%29.92 "HgN/A
6:20 PM64 °FRain showers. Broken clouds.7 mph83%29.92 "Hg3 mi
5:20 PM66 °FPartly sunny.5 mph78%29.92 "HgN/A
4:20 PM66 °FScattered clouds.10 mph78%29.92 "HgN/A
3:20 PM68 °FScattered clouds.15 mph69%29.92 "HgN/A
2:20 PM68 °FScattered clouds.14 mph69%29.92 "HgN/A
Weather by CustomWeather, © 2014

See weather overviewHow to use our weather pages